Flag for Paraguay Weather past 2 weeks in Asuncion, Paraguay

Now
77 °F

Thunderstorms. Partly cloudy.


Feels Like: 79 °F
Forecast: 76 / 94 °F
Wind: No wind

Location: Asuncion / Aeropuerto

Current Time: Jan 27, 2015 at 2:50:09 AM

Latest Report: Jan 27, 2015 at 2:00 AM


Visibility: N/A

Pressure: 29.77 "Hg

Humidity: 79%

Dew point: 70 °F

Location of AsuncionLocation

Historic Weather in Asuncion — Graph

°F

Asuncion temperature yesterday

Maximum temperature yesterday: 93 °F (at 6:00 PM)
Minimum temperature yesterday: 72 °F (at 4:00 AM)
Average temperature yesterday: 80 °F

Past Weeks' High & Low Weather Summary

 TemperatureHumidityPressure
High99 °F (Jan 12, 2:00 PM)100% (Jan 14, 9:00 PM)30.04 "Hg (Jan 14, 9:00 PM)
Low68 °F (Jan 25, 7:00 PM)12% (Jan 17, 3:00 PM)29.68 "Hg (Jan 13, 6:00 PM)
Average83 °F74%29.87 "Hg
* Reported Jan 12 1:00 AM — Jan 27 1:00 AM, Asuncion, Weather by CustomWeather, © 2014

Note: Actual official high and low records may vary slightly from our data, if they occured in-between our weather recording intervals... More about our weather records

Advertising

Asuncion weather history for previous 24 hours

 ConditionsComfort  
Time TempWeatherWind HumidityBarometerVisibility
1:00 AM
Jan 27
77 °FThunderstorms. Partly cloudy.No wind79%29.80 "HgN/A
12:00 AM81 °FThunderstorms. Partly cloudy.7 mph79%29.80 "HgN/A
11:00 PM
Jan 26
82 °FThunderstorms. Passing clouds.5 mph70%29.80 "HgN/A
10:00 PM82 °FClear.6 mph70%29.77 "Hg4 mi
9:00 PM84 °FClear.6 mph70%29.74 "Hg4 mi
8:00 PM86 °FPassing clouds.6 mph62%29.71 "HgN/A
7:00 PM91 °FPassing clouds.3 mph49%29.71 "HgN/A
6:00 PM93 °FPassing clouds.6 mph47%29.71 "HgN/A
10:30 AM86 °FPassing clouds.5 mph62%29.89 "HgN/A
10:00 AM84 °FPassing clouds.5 mph62%29.89 "HgN/A
9:30 AM82 °FPassing clouds.6 mph66%29.89 "HgN/A
9:00 AM81 °FPassing clouds.7 mph66%29.89 "HgN/A
8:30 AM81 °FPassing clouds.6 mph66%29.89 "HgN/A
8:00 AM77 °FSunny.No wind79%29.86 "Hg10 mi
7:00 AM73 °FSunny.No wind89%29.86 "Hg10 mi
6:00 AM73 °FPassing clouds.No wind89%29.83 "HgN/A
5:00 AM73 °FPassing clouds.No wind89%29.83 "HgN/A
4:00 AM72 °FPassing clouds.No wind94%29.83 "Hg6 mi
3:00 AM73 °FPassing clouds.No wind94%29.80 "Hg5 mi
2:00 AM73 °FClear.No wind89%29.80 "Hg5 mi
Weather by CustomWeather, © 2014

See weather overviewHow to use our weather pages